Vertical_Velocity
-2 -1 -3 -3 -4 -1 -1 -4 -5 -3 -4 -5 2 -1 -0 -0 0 0 -1 1 1 1 0 0 0 0 0 0 0 -0 -1 -1 -0 -8 -3 -0 -1 -2 -1 -4 -7 -2 -3 -18
-1 -3 -3 1 -3 -3 -5 -1 -2 -2 -1 -4 -1 -1 -0 -1 -1 0 -1 0 0 -0 1 -2 1 -0 -1 1 -1 -1 -2 -4 -2 -13 -6 -2 -1 -0 -0 -1 -2 -3 -3 -14
-3 -1 -4 -2 0 -3 -1 -2 -6 -3 0 2 -1 -0 -0 -0 -1 -1 -0 -0 -1 -2 -0 -1 -3 -1 -0 3 -1 1 -1 0 -3 -5 -6 -1 -0 -0 -1 -0 2 -4 -11 -12
-3 -3 -2 -0 -2 -4 0 -1 -0 0 -3 -3 -1 -0 1 -0 -0 1 1 1 -2 1 0 -1 -0 -1 -4 -5 -2 1 -2 0 2 -2 0 1 1 1 -1 4 -8 6 -24 2
-1 -2 -3 -4 -4 -4 -3 -2 -3 -1 -1 1 -0 -0 -2 -0 -1 0 -1 -3 0 -0 0 0 -1 1 0 -2 -6 1 -1 -3 0 -2 -2 2 1 -1 0 -0 -3 2 3 -12
-3 -2 -4 -0 1 -2 -4 0 1 -2 0 -1 -1 -1 1 1 -0 -1 1 1 0 0 -1 1 -1 1 -3 -2 2 -0 2 1 0 -4 0 -1 -1 -1 -1 -1 -0 -1 1 -6
-5 -0 -0 0 -0 1 -6 -3 -2 -2 -3 0 -2 0 -2 -0 -0 0 -2 1 2 -2 1 -3 -0 7 4 7 -6 3 1 -0 1 -1 -3 -0 -17 -1 1 -2 2 -1 -2 -0
-3 -1 -2 -2 1 -2 -2 -3 -3 -4 -1 -0 -1 -0 -0 -1 -2 0 3 -3 -4 1 -2 -1 -3 -4 -1 -2 -1 1 1 -1 -1 1 0 -9 -8 -0 -1 0 1 2 2 -1
5 -2 3 -0 -2 2 -2 4 2 -3 -3 -4 2 -0 -1 -1 -0 -3 2 1 -0 1 0 1 0 -1 -0 -3 -1 -0 1 -0 -2 0 3 -0 -2 -2 1 1 -1 1 1 1
-10 -6 3 1 -1 0 -1 -5 -5 -1 -2 -1 -0 -1 -1 1 -1 -0 0 -1 -3 1 -0 0 0 -2 1 -0 1 -0 0 2 -3 -1 -0 -7 -3 -1 3 4 -1 2 -0 2
-7 -1 -4 0 -0 -1 -0 -2 -1 -3 -3 -8 1 2 -2 2 -1 -2 0 -8 -2 -2 -0 1 -0 0 -1 0 -0 1 -0 -2 -1 1 3 -6 4 -5 -6 12 -0 12 7 6
-4 6 -0 1 3 4 -2 2 -3 -3 -2 -0 2 -1 0 2 0 -3 0 -0 -1 -0 -2 -2 -0 -1 -1 -1 -3 -5 -4 -4 -0 4 -5 -0 5 7 6 1 6 -2 3 -1
-5 -1 2 1 2 3 1 -2 0 -1 -4 -1 -4 -0 4 -0 3 -0 0 -1 -2 3 -0 -3 -2 0 -1 -1 -4 -0 -4 -0 -0 3 -4 -1 -1 -9 8 -7 6 -1 -4 -2
-0 4 -1 -0 -2 -1 1 -2 -2 -2 -2 0 -0 5 -4 -0 3 3 -3 5 8 5 2 -2 0 -0 2 -1 -1 4 -7 1 -1 -9 -10 -6 -5 3 2 -6 -4 -2 1 1
4 4 -2 -5 0 1 3 2 -4 -2 -3 -2 -2 -0 -5 3 -2 2 -0 -1 7 -1 -0 1 -2 1 1 -0 1 -0 -2 -4 -1 -5 -2 12 -12 -10 3 1 -2 -3 -0 -7
0 6 3 -1 7 -1 -0 -3 3 -10 1 -4 -3 -3 1 -1 1 -2 0 3 2 2 -1 -2 -1 -4 1 -0 -0 -8 7 10 16 1 7 8 4 3 10 7 1 -1 7 6
6 -5 6 -2 1 -1 -1 -1 -7 3 -5 -3 -5 -6 -0 1 -3 -1 -0 3 -3 2 -1 2 -1 -3 0 1 0 -1 -5 -5 -7 2 -1 -19 -2 -15 -0 -4 3 -1 -7 -0
-5 2 3 -3 7 -1 -3 1 4 1 -5 0 -2 -6 -5 -2 -1 -1 1 0 3 2 -3 2 1 2 1 1 0 -3 -0 -3 -5 2 -1 2 -5 0 4 5 -0 -0 -6 -1
-5 3 1 -3 -1 -1 2 2 5 -1 -2 -2 0 -3 -5 1 -1 2 1 1 1 3 -0 -1 3 -0 -0 4 1 -1 -1 4 -1 -2 -1 1 4 -3 -6 -2 -2 -1 -6 -2
1 3 2 -3 -2 -1 3 1 -4 -4 -1 2 -2 3 -4 -1 1 -2 1 3 -1 -0 -6 3 -1 0 2 -1 4 3 -1 1 3 0 -18 -9 -4 -1 -5 2 -0 1 -2 -3
-0 -0 -4 0 4 -1 -1 -3 -3 0 -2 0 -0 -0 -2 1 -1 -1 3 -3 -2 -1 -7 1 -0 2 -1 -4 -3 1 1 1 -0 5 4 5 8 1 -0 -6 0 1 -1 -6
1 -1 -3 -3 -2 -2 -7 -2 0 -2 -4 4 -1 -1 -2 -2 1 1 -3 -2 -3 -4 0 3 1 2 -0 -1 1 -1 -5 -5 -3 5 2 1 4 3 2 -1 -1 -0 -1 -3
1 -7 -6 2 1 -8 -5 -2 -4 -2 0 2 -2 -4 -0 -3 1 1 -0 0 -5 2 -1 0 2 2 1 -1 -4 -8 -2 4 4 -2 1 2 -1 1 5 -1 2 3 2 0
-4 -2 -4 -6 -4 -2 -3 -2 -1 3 0 -1 -1 -1 0 1 1 -0 -0 -8 -2 -1 -0 2 1 1 -1 3 -3 -3 -2 -2 -0 -1 -2 1 3 -1 1 4 5 11 1 2
-3 -2 -4 -1 1 4 4 1 -1 0 -1 -0 -0 -3 1 -1 -2 -0 -1 -2 0 1 2 1 1 -0 0 -4 -1 1 -2 1 -2 2 1 1 -1 -0 4 6 5 5 5 2
-3 -1 -3 2 -2 0 0 1 -1 1 -1 2 -2 -0 -2 -2 -1 0 -3 -1 0 2 0 0 -2 -1 -1 1 -0 -0 3 -1 1 3 0 1 -0 0 7 5 1 2 3 4
-1 -0 2 -1 -0 -1 1 1 0 0 -3 -1 0 -2 -11 -2 -0 1 -0 -0 1 2 4 1 1 -1 -1 0 -0 2 -2 -1 2 2 -1 3 4 4 -1 -5 4 4 5 3
Height
1547 1546 1544 1542 1541 1539 1537 1535 1536 1534 1533 1534 1533 1537 1535 1535 1533 1534 1534 1533 1532 1534 1533 1530 1525 1521 1518 1517 1517 1519 1518 1520 1523 1512 1504 1503 1503 1506 1510 1530 1520 1527 1528 1487
1545 1543 1542 1541 1538 1538 1537 1536 1537 1537 1535 1539 1539 1535 1535 1535 1534 1534 1535 1535 1535 1534 1535 1537 1528 1524 1523 1520 1519 1521 1521 1523 1531 1511 1507 1503 1503 1502 1502 1506 1512 1515 1528 1483
1541 1540 1539 1540 1538 1536 1537 1537 1539 1538 1537 1537 1538 1539 1537 1536 1535 1534 1532 1532 1533 1536 1536 1534 1530 1526 1525 1523 1522 1519 1519 1521 1520 1514 1503 1506 1508 1504 1501 1504 1518 1503 1490 1472
1537 1537 1537 1537 1536 1536 1538 1538 1538 1540 1542 1538 1538 1539 1539 1536 1535 1536 1533 1530 1532 1534 1536 1532 1530 1528 1528 1523 1523 1520 1518 1521 1519 1515 1511 1508 1506 1502 1501 1500 1493 1500 1475 1477
1533 1532 1533 1534 1535 1535 1536 1539 1537 1539 1540 1539 1536 1536 1537 1537 1539 1539 1534 1533 1531 1532 1534 1534 1535 1535 1533 1528 1521 1519 1515 1516 1515 1517 1509 1507 1499 1493 1489 1488 1482 1480 1476 1467
1528 1529 1530 1531 1531 1531 1532 1535 1535 1534 1536 1540 1539 1537 1536 1539 1540 1540 1540 1536 1534 1533 1529 1527 1526 1525 1525 1525 1525 1523 1525 1519 1516 1510 1510 1508 1498 1482 1480 1476 1474 1473 1476 1467
1522 1525 1525 1527 1527 1527 1529 1531 1533 1536 1534 1535 1534 1532 1533 1535 1540 1542 1537 1539 1538 1533 1531 1526 1518 1514 1512 1513 1513 1520 1521 1525 1526 1518 1514 1519 1482 1476 1473 1474 1476 1473 1468 1464
1515 1519 1521 1524 1525 1525 1527 1529 1530 1531 1533 1531 1531 1529 1532 1534 1534 1537 1536 1534 1534 1532 1529 1527 1519 1511 1509 1503 1505 1508 1515 1525 1524 1527 1522 1502 1479 1476 1476 1473 1478 1476 1472 1467
1509 1513 1516 1519 1522 1522 1524 1527 1528 1530 1533 1531 1530 1527 1530 1533 1532 1532 1531 1532 1532 1533 1529 1527 1525 1519 1507 1505 1504 1505 1509 1517 1522 1521 1517 1503 1479 1477 1473 1471 1480 1476 1474 1471
1504 1509 1512 1515 1518 1520 1521 1524 1527 1529 1529 1529 1531 1531 1528 1529 1533 1537 1535 1532 1531 1533 1533 1528 1527 1521 1510 1511 1506 1511 1513 1518 1518 1517 1512 1500 1483 1477 1470 1475 1486 1476 1474 1473
1497 1503 1507 1513 1515 1517 1519 1523 1524 1526 1526 1527 1529 1526 1528 1528 1531 1534 1533 1534 1531 1533 1535 1531 1526 1525 1522 1522 1518 1512 1508 1513 1511 1511 1510 1502 1485 1478 1483 1489 1482 1479 1476 1475
1493 1500 1503 1508 1513 1514 1516 1521 1521 1523 1526 1526 1527 1525 1524 1524 1526 1531 1531 1530 1530 1532 1535 1536 1533 1529 1527 1526 1528 1512 1512 1510 1514 1508 1496 1484 1487 1490 1490 1488 1486 1482 1480 1476
1492 1499 1502 1508 1512 1514 1517 1520 1521 1521 1523 1522 1521 1524 1523 1523 1521 1522 1530 1528 1527 1529 1531 1534 1534 1532 1524 1530 1524 1518 1510 1507 1509 1504 1491 1488 1485 1485 1484 1487 1484 1481 1479 1475
1493 1496 1502 1507 1510 1514 1517 1517 1520 1523 1523 1522 1522 1520 1520 1521 1519 1518 1522 1525 1524 1526 1529 1531 1530 1528 1520 1521 1520 1519 1513 1510 1504 1498 1488 1487 1481 1481 1480 1478 1479 1475 1472 1471
1496 1497 1499 1505 1511 1514 1516 1516 1517 1519 1523 1523 1520 1518 1519 1518 1515 1514 1519 1522 1523 1526 1528 1528 1527 1522 1520 1516 1515 1509 1503 1502 1505 1496 1490 1490 1479 1474 1473 1471 1470 1468 1465 1462
1496 1500 1502 1506 1511 1513 1515 1516 1516 1519 1519 1519 1520 1521 1517 1515 1514 1513 1516 1518 1519 1523 1524 1521 1520 1519 1518 1518 1514 1499 1498 1497 1496 1493 1488 1481 1477 1471 1469 1465 1463 1460 1458 1456
1495 1503 1505 1507 1512 1514 1515 1515 1517 1516 1515 1519 1520 1519 1517 1514 1514 1514 1514 1514 1518 1521 1524 1517 1516 1514 1514 1512 1507 1499 1498 1495 1491 1489 1484 1473 1472 1468 1462 1459 1455 1453 1449 1447
1499 1505 1504 1510 1513 1512 1516 1517 1515 1513 1515 1520 1521 1521 1516 1515 1517 1515 1515 1515 1515 1515 1517 1515 1511 1510 1510 1509 1504 1500 1496 1490 1485 1483 1482 1477 1467 1461 1456 1453 1448 1443 1440 1437
1496 1502 1504 1510 1513 1516 1516 1516 1514 1514 1521 1518 1520 1521 1525 1516 1517 1516 1515 1515 1514 1512 1511 1508 1508 1505 1507 1506 1503 1499 1495 1491 1483 1476 1472 1467 1462 1455 1448 1444 1439 1436 1431 1429
1499 1503 1501 1507 1512 1516 1518 1515 1515 1519 1520 1519 1514 1514 1517 1518 1518 1516 1516 1513 1509 1510 1504 1503 1505 1502 1505 1504 1501 1497 1491 1485 1479 1471 1463 1456 1452 1447 1439 1434 1431 1427 1422 1419
1497 1500 1502 1509 1511 1514 1516 1517 1521 1522 1521 1517 1515 1514 1515 1519 1520 1518 1516 1514 1510 1513 1502 1500 1498 1501 1505 1501 1497 1492 1487 1481 1476 1471 1464 1457 1449 1440 1432 1424 1420 1416 1412 1409
1496 1497 1503 1510 1511 1513 1518 1524 1523 1520 1520 1516 1513 1515 1518 1517 1517 1517 1514 1514 1511 1511 1498 1496 1495 1505 1503 1498 1493 1487 1482 1477 1470 1464 1457 1449 1442 1435 1426 1417 1410 1404 1400 1397
1495 1499 1505 1510 1513 1520 1526 1533 1524 1521 1515 1514 1514 1517 1517 1516 1517 1515 1513 1514 1511 1499 1500 1493 1504 1505 1501 1496 1490 1484 1480 1473 1466 1458 1452 1445 1437 1429 1421 1411 1404 1395 1389 1388
1496 1500 1511 1512 1521 1517 1513 1510 1510 1514 1516 1515 1515 1516 1516 1515 1515 1514 1515 1506 1502 1504 1495 1501 1505 1503 1500 1495 1491 1485 1478 1471 1464 1457 1450 1442 1434 1426 1418 1410 1401 1392 1389 1388
1497 1501 1512 1513 1508 1510 1510 1509 1511 1514 1516 1516 1515 1516 1517 1515 1516 1513 1509 1506 1496 1502 1506 1506 1505 1502 1498 1494 1489 1484 1478 1471 1464 1457 1449 1442 1435 1428 1420 1411 1403 1398 1394 1392
1499 1503 1507 1506 1507 1511 1510 1510 1513 1514 1515 1514 1515 1516 1519 1520 1516 1513 1514 1505 1510 1508 1507 1507 1504 1501 1497 1493 1489 1485 1480 1474 1468 1460 1453 1446 1438 1431 1424 1417 1409 1404 1400 1396
1500 1503 1504 1505 1507 1509 1509 1511 1513 1514 1514 1514 1514 1520 1520 1514 1513 1507 1508 1510 1510 1509 1507 1505 1502 1500 1496 1493 1490 1486 1481 1476 1470 1464 1457 1450 1443 1437 1429 1422 1418 1413 1409 1405